TimeCDT,TemperatureF,Dew PointF,Humidity,Sea Level PressureIn,VisibilityMPH,Wind Direction,Wind SpeedMPH,Gust SpeedMPH,PrecipitationIn,Events,Conditions,WindDirDegrees,DateUTC
12:55 AM,66.7,64.2,92,30.14,10.0,NE,5.8,-,N/A,,Clear,50,2012-10-04 05:55:00
1:55 AM,65.8,64.6,96,30.14,10.0,NNE,5.8,-,N/A,,Clear,20,2012-10-04 06:55:00
2:55 AM,65.7,64.8,97,30.15,10.0,North,5.8,-,N/A,,Clear,10,2012-10-04 07:55:00
3:55 AM,64.2,64.2,100,30.15,10.0,NNE,4.6,-,N/A,,Clear,20,2012-10-04 08:55:00
4:55 AM,64.8,64.8,100,30.17,10.0,NNE,4.6,-,N/A,,Clear,30,2012-10-04 09:55:00
5:53 AM,64.4,64.4,100,30.19,10.0,NE,4.6,-,N/A,,Partly Cloudy,50,2012-10-04 10:53:00
5:55 AM,63.9,63.9,100,30.19,10.0,NE,4.6,-,N/A,,Partly Cloudy,50,2012-10-04 10:55:00
6:02 AM,64.4,64.4,100,30.19,10.0,NE,5.8,-,N/A,,Mostly Cloudy,40,2012-10-04 11:02:00
6:22 AM,64.4,64.4,100,30.20,7.0,NNE,5.8,-,N/A,,Overcast,30,2012-10-04 11:22:00
6:42 AM,64.4,64.4,100,30.20,2.5,NE,4.6,-,N/A,,Overcast,50,2012-10-04 11:42:00
6:46 AM,64.4,64.4,100,30.20,1.8,NNE,3.5,-,N/A,,Overcast,30,2012-10-04 11:46:00
6:48 AM,64.4,64.4,100,30.20,1.5,NNE,5.8,-,N/A,,Overcast,30,2012-10-04 11:48:00
6:49 AM,64.4,64.4,100,30.20,1.2,NE,5.8,-,N/A,,Overcast,40,2012-10-04 11:49:00
6:50 AM,64.4,64.4,100,30.20,1.0,NE,4.6,-,N/A,,Mist,40,2012-10-04 11:50:00
6:53 AM,64.4,64.4,100,30.20,0.8,NE,3.5,-,N/A,,Mist,40,2012-10-04 11:53:00
6:55 AM,63.9,63.9,100,30.20,0.8,NE,3.5,-,N/A,,Mist,40,2012-10-04 11:55:00
6:58 AM,64.4,64.4,100,30.21,0.5,NE,4.6,-,N/A,Fog,Fog,40,2012-10-04 11:58:00
7:04 AM,64.4,64.4,100,30.21,0.5,NE,4.6,-,N/A,Fog,Fog,50,2012-10-04 12:04:00
7:12 AM,64.4,64.4,100,30.21,0.5,NNE,4.6,-,N/A,Fog,Fog,30,2012-10-04 12:12:00
7:36 AM,64.4,64.4,100,30.21,0.5,NNE,4.6,-,N/A,Fog,Fog,30,2012-10-04 12:36:00
7:46 AM,64.4,64.4,100,30.21,0.5,NNE,5.8,-,N/A,Fog,Fog,20,2012-10-04 12:46:00
7:48 AM,64.4,64.4,100,30.21,0.5,NNE,5.8,-,N/A,Fog,Fog,20,2012-10-04 12:48:00
7:55 AM,64.0,64.0,100,30.22,0.2,NE,5.8,-,N/A,Fog,Fog,40,2012-10-04 12:55:00
8:01 AM,64.4,64.4,100,30.22,0.2,NNE,5.8,-,N/A,Fog,Fog,30,2012-10-04 13:01:00
8:12 AM,64.4,64.4,100,30.22,0.5,NNE,4.6,-,N/A,Fog,Fog,30,2012-10-04 13:12:00
8:23 AM,64.4,64.4,100,30.22,0.5,NE,5.8,-,N/A,Fog,Fog,40,2012-10-04 13:23:00
8:31 AM,66.2,64.4,94,30.22,0.5,NNE,4.6,-,N/A,Fog,Fog,30,2012-10-04 13:31:00
8:36 AM,66.2,64.4,94,30.22,0.8,NNE,5.8,-,N/A,,Mist,20,2012-10-04 13:36:00
8:42 AM,66.2,64.4,94,30.22,0.8,NNE,4.6,-,N/A,,Mist,30,2012-10-04 13:42:00
8:49 AM,66.2,64.4,94,30.22,1.0,NE,8.1,-,N/A,,Mist,40,2012-10-04 13:49:00
8:55 AM,66.6,65.1,95,30.22,1.0,NNE,9.2,-,N/A,,Mist,20,2012-10-04 13:55:00
8:56 AM,66.2,64.4,94,30.22,1.2,NNE,9.2,-,N/A,,Overcast,30,2012-10-04 13:56:00
9:01 AM,66.2,64.4,94,30.22,1.5,NNE,8.1,-,N/A,,Overcast,20,2012-10-04 14:01:00
9:05 AM,66.2,66.2,100,30.22,1.8,NNE,9.2,-,N/A,,Overcast,20,2012-10-04 14:05:00
9:09 AM,66.2,66.2,100,30.21,2.0,North,9.2,-,N/A,,Overcast,10,2012-10-04 14:09:00
9:19 AM,68.0,66.2,94,30.21,3.0,North,10.4,-,N/A,,Overcast,10,2012-10-04 14:19:00
9:55 AM,69.4,68.0,95,30.22,10.0,North,9.2,-,N/A,,Overcast,10,2012-10-04 14:55:00
10:15 AM,73.4,69.8,88,30.22,10.0,NNE,8.1,-,N/A,,Scattered Clouds,20,2012-10-04 15:15:00
10:41 AM,75.2,69.8,83,30.22,10.0,NE,4.6,-,N/A,,Light Drizzle,40,2012-10-04 15:41:00
10:50 AM,77.0,69.8,78,30.22,10.0,NE,6.9,-,N/A,,Clear,40,2012-10-04 15:50:00
10:55 AM,77.0,70.5,80,30.22,10.0,NE,5.8,-,0.00,,Clear,40,2012-10-04 15:55:00
10:58 AM,77.0,69.8,78,30.22,10.0,NNE,5.8,-,N/A,,Light Drizzle,30,2012-10-04 15:58:00
11:10 AM,78.8,69.8,74,30.22,10.0,ENE,9.2,-,N/A,,Clear,60,2012-10-04 16:10:00
11:55 AM,81.3,69.3,67,30.20,10.0,NNE,6.9,-,0.00,,Clear,30,2012-10-04 16:55:00
12:03 PM,80.6,69.8,70,30.20,10.0,North,5.8,-,N/A,,Light Drizzle,10,2012-10-04 17:03:00
12:11 PM,82.4,69.8,66,30.19,10.0,NNE,5.8,-,N/A,,Clear,30,2012-10-04 17:11:00
12:55 PM,82.8,68.7,62,30.19,10.0,NNE,8.1,-,0.00,,Partly Cloudy,20,2012-10-04 17:55:00
1:49 PM,84.2,68.0,58,30.16,10.0,North,12.7,-,N/A,,Light Drizzle,10,2012-10-04 18:49:00
1:55 PM,83.8,68.9,61,30.16,10.0,NNE,9.2,-,0.00,,Light Drizzle,20,2012-10-04 18:55:00
1:57 PM,84.2,69.8,62,30.16,10.0,NNE,6.9,-,N/A,,Clear,30,2012-10-04 18:57:00
2:55 PM,84.6,64.9,52,30.16,10.0,NNE,9.2,-,0.00,,Clear,30,2012-10-04 19:55:00
3:55 PM,83.8,69.3,61,30.15,10.0,North,6.9,-,N/A,,Clear,10,2012-10-04 20:55:00
4:46 PM,80.6,71.6,74,30.14,10.0,NNE,5.8,-,N/A,,Light Drizzle,20,2012-10-04 21:46:00
4:50 PM,80.6,71.6,74,30.13,10.0,NNE,5.8,-,N/A,,Clear,20,2012-10-04 21:50:00
4:52 PM,80.6,71.6,74,30.13,10.0,NNE,5.8,-,N/A,,Light Drizzle,20,2012-10-04 21:52:00
4:55 PM,80.6,71.8,74,30.14,10.0,North,4.6,-,0.00,,Light Drizzle,10,2012-10-04 21:55:00
4:56 PM,80.6,71.6,74,30.14,10.0,NNE,3.5,-,N/A,,Clear,20,2012-10-04 21:56:00
5:13 PM,80.6,71.6,74,30.13,10.0,North,5.8,-,N/A,Rain,Light Rain,10,2012-10-04 22:13:00
5:26 PM,80.6,71.6,74,30.13,10.0,NNE,4.6,-,N/A,,Clear,30,2012-10-04 22:26:00
5:55 PM,78.4,72.5,82,30.13,10.0,NNE,3.5,-,0.00,,Clear,20,2012-10-04 22:55:00
6:04 PM,78.8,71.6,78,30.13,10.0,Calm,Calm,-,N/A,Rain,Light Rain,0,2012-10-04 23:04:00
6:17 PM,77.0,71.6,83,30.13,10.0,Calm,Calm,-,N/A,,Clear,0,2012-10-04 23:17:00
6:55 PM,75.6,68.4,78,30.15,10.0,Calm,Calm,-,0.00,,Clear,0,2012-10-04 23:55:00
7:55 PM,73.8,70.2,88,30.16,10.0,ENE,3.5,-,N/A,,Clear,60,2012-10-05 00:55:00
8:55 PM,71.4,69.3,93,30.16,10.0,NE,5.8,-,N/A,,Clear,50,2012-10-05 01:55:00
9:55 PM,71.8,68.9,91,30.17,10.0,ENE,4.6,-,N/A,,Clear,60,2012-10-05 02:55:00
10:55 PM,72.3,70.2,93,30.17,10.0,NE,3.5,-,N/A,,Clear,40,2012-10-05 03:55:00
11:55 PM,69.1,68.7,99,30.15,10.0,North,4.6,-,N/A,,Clear,10,2012-10-05 04:55:00